Orbital Elements at Epoch 2459200.5 (2020-Dec-17.0) TDB
Reference: JPL 31 (heliocentric ecliptic J2000)
Element | Value | Uncertainty (1-sigma) | Units |
e | .1635495568205253 | 4.8206e-08 | |
a | 2.702785323216329 | 1.3459e-08 | au |
q | 2.260745981423278 | 1.3483e-07 | au |
i | 5.340090780650947 | 4.8774e-06 | deg |
node | 205.839280470902 | 4.2605e-05 | deg |
peri | 154.8199871964738 | 4.3989e-05 | deg |
M | 242.373896164709 | 1.314e-05 | deg |
tp | 2459730.794308516027 (2022-May-31.29430852) | 6.1225e-05 | TDB |
period | 1622.989666758755 4.44 | 1.2123e-05 3.319e-08 | d yr |
n | .2218128724867053 | 1.6568e-09 | deg/d |
Q | 3.14482466500938 | 1.566e-08 | au |
|
| | Orbit Determination Parameters
Additional Information
|